Regional Weather Roundup
Issued by NWS

Home | Current Version | Previous Version | Text Only | Print | Product List | Glossary On
Versions: 1 2 3 4 5 6 7 8 9 10 11 12 13 14 15 16 17 18 19 20 21 22 23 24 25 26 27 28 29 30 31 32 33 34 35 36 37 38 39 40 41 42 43 44 45 46 47 48 49 50
755
ASUS43 KTOP 081908
RWRKS

WEATHER ROUNDUP FOR KANSAS
NATIONAL WEATHER SERVICE GOODLAND KS
100 PM CST MON FEB 08 2016

NOTE:  "FAIR" INDICATES FEW OR NO CLOUDS BELOW 12,000 FEET WITH NO
SIGNIFICANT WEATHER AND/OR OBSTRUCTIONS TO VISIBILITY.

KSZ001>006-013>018-027>032-041>047-082000-
NORTHWEST KANSAS

CITY           SKY/WX    TMP DP  RH WIND       PRES   REMARKS
GOODLAND       CLOUDY    36  16  44 NW26G32   30.34F WCI  24
HAYS           SUNNY     37  12  35 NW31G40   30.30F WCI  25
HILL CITY      CLOUDY    36  17  46 NW28G37   30.32F WCI  23
RUSSELL        SUNNY     38  17  42 NW35G43   30.27F WCI  25
$$

KSZ061>065-074>080-084>089-082000-
SOUTHWEST KANSAS

CITY           SKY/WX    TMP DP  RH WIND       PRES   REMARKS
DODGE CITY     SUNNY     41   3  20 NW26G41   30.35F
ELKHART          N/A    N/A N/A N/A MISG        N/A
GARDEN CITY    SUNNY     42   3  19 N23G39    30.37F
GREAT BEND     SUNNY     39  16  38 N32G39    30.30F WCI  27
LIBERAL        SUNNY     46  10  23 N25G32    30.40F
PRATT          SUNNY     38  10  31 N29G39    30.30F WCI  26
$$

KSZ066>073-081>083-090>101-082000-
SOUTHEAST KANSAS

CITY           SKY/WX    TMP DP  RH WIND       PRES   REMARKS
CHANUTE        CLOUDY    41  18  39 NW22G35   30.13F
COFFEYVILLE    MOSUNNY   43  16  33 N31G39    30.15F
HUTCHINSON     SUNNY     43  11  27 NW30G51   30.23F
MEDICINE LODGE   N/A     44  10  25 N29G47    30.28F
NEWTON         SUNNY     39  12  33 N32G44    30.20F WCI  27
PARSONS        CLOUDY    41  18  39 NW22G33   30.15F
WICHITA INTL   MOSUNNY   44  13  28 NW29G44   30.23F
WICHITA JABRA  SUNNY     42  13  30 NW31G51   30.21F
WICHITA MCCONL SUNNY     42  12  28 N28G36    30.20F
WINFIELD       SUNNY     45  13  27 NW33G40   30.23F
$$

KSZ007>012-019>026-033>040-048>060-102>105-082000-
NORTHEAST KANSAS

CITY           SKY/WX    TMP DP  RH WIND       PRES   REMARKS
CONCORDIA      SUNNY     37  17  44 NW25G39   30.20F WCI  25
EMPORIA        PTSUNNY   39  15  37 NW33G47   30.14F WCI  27
LAWRENCE       CLOUDY    34  16  47 NW29G44   30.11S WCI  20
MANHATTAN      PTSUNNY   38  18  44 NW17G28   30.19F WCI  28
MARYSVILLE     CLOUDY    34  19  55 NW30G39   30.14F WCI  20
OLATHE IND     CLOUDY    32  16  51 NW23G39   30.07F WCI  19
OLATHE EXE     CLOUDY    31  17  56 NW22G31   30.06F WCI  18
SALINA         SUNNY     42  13  30 NW36G47   30.22F
TOPEKA BILLARD CLOUDY    35  16  45 NW24G35   30.13F WCI  23
TOPEKA FORBES  CLOUDY    38  17  42 NW30G43   30.11F WCI  26
$$




USA.gov is the U.S. government's official web portal to all federal, state and local government web resources and services.